Regional Weather Roundup
Issued by NWS

Home | Current Version | Previous Version | Text Only | Print | Product List | Glossary On
Versions: 1 2 3 4 5 6 7 8 9 10 11 12 13 14 15 16 17 18 19 20 21 22 23 24 25 26 27 28 29 30 31 32 33 34 35 36 37 38 39 40 41 42 43 44 45 46 47 48 49 50
000
ASUS43 KLOT 231408
RWRIL

ILLINOIS REGIONAL WEATHER ROUNDUP
NATIONAL WEATHER SERVICE CHICAGO/ROMEOVILLE IL
800 AM CST FRI FEB 23 2018

NOTE: "FAIR" INDICATES FEW OR NO CLOUDS BELOW 12,000 FEET WITH NO
SIGNIFICANT WEATHER AND/OR OBSTRUCTIONS TO VISIBILITY.

* THESE STATIONS ARE NOT UNDER NWS QUALITY CONTROL. THEY ALSO MAY NOT
  REPORT WEATHER SUCH AS PRECIPITATION OR FOG.

ILZ001-002-007-009-015-016-024-231500-
NORTHWEST ILLINOIS

CITY           SKY/WX    TMP DP  RH WIND       PRES   REMARKS
MOLINE         CLOUDY    37  34  89 W13G23    30.17R WCI  29
STERLING*      CLOUDY    38  37  97 W18       30.13  WCI  28
SAVANNA*       CLOUDY    36  34  91 W10G18    30.14R WCI  29
$$

ILZ003-004-008-010-011-017-018-231500-
NORTH CENTRAL ILLINOIS

CITY           SKY/WX    TMP DP  RH WIND       PRES   REMARKS
ROCKFORD       CLOUDY    40  38  93 W10       30.11R FOG
FREEPORT*      CLOUDY    37  37 100 W13G20    30.11R FOG     WCI  28
ROCHELLE*      CLOUDY    39  39 100 W16G23    30.11R FOG     WCI  30
DE KALB*       FOG       40  40 100 SW13      30.09R VSB 3/4
PERU*          CLOUDY    41  39  93 W18G25    30.13R
$$

ILZ005-006-012>014-019>023-231500-
NORTHEAST ILLINOIS

CITY           SKY/WX    TMP DP  RH WIND       PRES   REMARKS
CHICAGO-OHARE  CLOUDY    42  40  92 SW10      30.07F FOG
CHICAGO-MIDWAY CLOUDY    42  41  96 SW8       30.09S
AURORA         CLOUDY    41  41 100 SW9       30.09S FOG
LANSING*       CLOUDY    41  41 100 S9        30.11S
JOLIET*        CLOUDY    43  43 100 SW5       30.11S FOG
WAUKEGAN       CLOUDY    41  40  96 S9        30.05F FOG
DUPAGE AIRPORT FOG       41  41 100 S8        30.08S VSB 3/4
KANKAKEE*      CLOUDY    42  42  98 SW8       30.13S FOG
WHEELING       CLOUDY    43  42  97 S9        30.08F
MORRIS*        CLOUDY    42  42  98 SW9       30.11R FOG
ROMEOVILLE*    CLOUDY    41  41 100 SW7       30.10S FOG
NORTHERLY ISL    N/A     41  39  93 S8          N/A
$$

LMZ740>746-231500-
SOUTHERN LAKE MICHIGAN

STATION/POSITION SKY/WX   TEMP    WIND        PRES    VSBY  WAVE
                          AIR SEA DIR/SP/G                  HT/PER
                          (F)     (DEG/KT/KT) (MB)    (MI)  (FT/S)
HARRISON CRIB              40     170/ 11/ 12   N/A
BURNHAM HARBOR             42     180/  7/ 12   N/A
CALUMET HARBOR             41     180/  6/  9 1018.5F
BURNS HARBOR               41     180/ 11/ 18 1019.6F
MICHIGAN CITY              41     140/ 16/ 20   N/A
$$

ILZ025>027-034>036-040-047-049-050-058-095>099-231500-
WEST-CENTRAL ILLINOIS

CITY           SKY/WX    TMP DP  RH WIND       PRES   REMARKS
QUINCY         CLOUDY    36  34  92 W12       30.23R WCI  28
GALESBURG*     CLOUDY    36  36 100 W13G18    30.20R WCI  27
MACOMB*        CLOUDY   N/A N/A N/A W17       30.23R
JACKSONVILLE*  CLOUDY    40  38  91 W12       30.23R
PITTSFIELD*    CLOUDY    40  38  94 W8        30.25R
$$

ILZ028>032-037-038-041>044-048-051>054-059>061-231500-
CENTRAL ILLINOIS

CITY           SKY/WX    TMP DP  RH WIND       PRES   REMARKS
PONTIAC        CLOUDY    44  44  98 SW16      30.14R
BLOOMINGTON    CLOUDY    43  42  97 W12G25    30.15R
DECATUR        CLOUDY    46  46 100 W12       30.20R
PEORIA         PTSUNNY   42  39  89 W13       30.18R
LACON*         CLOUDY    41  39  94 W9        30.16R
LINCOLN*       CLOUDY    44  43  96 W5        30.19R
SPRINGFIELD    CLOUDY    45  41  86 W13       30.21R
TAYLORVILLE    CLOUDY    45  43  94 W13       30.23R
$$

ILZ033-039-045-046-055>057-062-063-231500-
EAST-CENTRAL ILLINOIS

CITY           SKY/WX    TMP DP  RH WIND       PRES   REMARKS
CHAMPAIGN      CLOUDY    45  45 100 W15       30.18R
DANVILLE*      CLOUDY    46  46  99 SW12      30.13F
RANTOUL*       CLOUDY    47  47  99 W10       30.16R
MATTOON        CLOUDY    48  46  93 W13G21    30.20R
PARIS*         CLOUDY    48  48 100 W12G17    30.19R
$$

ILZ079-100>102-231500-
SOUTHWEST ILLINOIS

CITY           SKY/WX    TMP DP  RH WIND       PRES   REMARKS
ALTON          CLOUDY    45  45 100 W9        30.24R
BELLEVILLE     CLOUDY    47  44  90 W8        30.23S
CAHOKIA*       CLOUDY    47  44  90 W5          N/A
SPARTA*        CLOUDY    46  46 100 W3        30.25S
$$

ILZ064>066-069>071-074>076-080>082-084>086-088>090-092>094-231500-
SOUTH-CENTRAL ILLINOIS

CITY           SKY/WX    TMP DP  RH WIND       PRES   REMARKS
CARBONDALE     CLOUDY    49  49 100 CALM      30.26R
CAIRO*         RAIN      54  53  97 SW10      30.30R
EFFINGHAM*     CLOUDY    48  48 100 SW12G17   30.24R
MARION         CLOUDY    48  48 100 NW6       30.26R
MT. VERNON     CLOUDY    49  47  93 W6        30.24R
CENTRALIA*     CLOUDY    48  47  97 W12       30.23S
SALEM*         CLOUDY    49  47  93 W13       30.23S
METROPOLIS*    RAIN      58  56  95 SW12G17   30.28R
$$

ILZ067-068-072-073-078-083-087-091-231500-
SOUTHEAST ILLINOIS

CITY           SKY/WX    TMP DP  RH WIND       PRES   REMARKS
LAWRENCEVILLE  CLOUDY    52  51  97 W7        30.23R FOG
FLORA*         CLOUDY    50  48  91 W12       30.23R
FAIRFIELD*     CLOUDY    49  49 100 CALM      30.24R
HARRISBURG*    CLOUDY    51  51 100 NW9       30.26R FOG
ROBINSON*      CLOUDY    50  50  98 W12       30.22R
CARMI*         CLOUDY    51  51  99 W12       30.25R FOG
$$

ABBREVIATIONS USED IN REMARKS
   TC - TEMPERATURE IN CELSIUS
  WCI - WIND CHILL INDEX
   HX - HEAT INDEX
  VSB - VISIBILITY
$$





USA.gov is the U.S. government's official web portal to all federal, state and local government web resources and services.